Time,TemperatureF,DewpointF,PressureIn,WindDirection,WindDirectionDegrees,WindSpeedMPH,WindSpeedGustMPH,Humidity,HourlyPrecipIn,Conditions,Clouds,dailyrainin,SoftwareType,DateUTC
2013-01-15 00:02:00,41.0,3.0,-100.00,East,82,2.0,7.0,20,-99.99,,,-99.99,,2013-01-15 08:02:00,
2013-01-15 00:12:00,40.0,3.0,-100.00,WSW,237,1.0,5.0,21,-99.99,,,-99.99,,2013-01-15 08:12:00,
2013-01-15 00:22:00,41.0,3.0,-100.00,WSW,252,1.0,5.0,20,-99.99,,,-99.99,,2013-01-15 08:22:00,
2013-01-15 00:32:00,41.0,3.0,-100.00,West,279,2.0,4.0,20,-99.99,,,-99.99,,2013-01-15 08:32:00,
2013-01-15 00:42:00,39.0,3.0,-100.00,East,96,1.0,4.0,22,-99.99,,,-99.99,,2013-01-15 08:42:00,
2013-01-15 00:52:00,40.0,3.0,-100.00,ENE,62,1.0,3.0,21,-99.99,,,-99.99,,2013-01-15 08:52:00,
2013-01-15 01:02:00,38.0,4.0,-100.00,SE,133,0.0,2.0,24,-99.99,,,-99.99,,2013-01-15 09:02:00,
2013-01-15 01:12:00,36.0,6.0,-100.00,SE,124,0.0,2.0,28,-99.99,,,-99.99,,2013-01-15 09:12:00,
2013-01-15 01:22:00,36.0,7.0,-100.00,North,9,2.0,4.0,29,-99.99,,,-99.99,,2013-01-15 09:22:00,
2013-01-15 01:33:00,36.0,5.0,-100.00,NNE,18,2.0,4.0,27,-99.99,,,-99.99,,2013-01-15 09:33:00,
2013-01-15 01:42:00,37.0,5.0,-100.00,NE,37,1.0,3.0,26,-99.99,,,-99.99,,2013-01-15 09:42:00,
2013-01-15 01:52:00,37.0,5.0,-100.00,NE,37,1.0,3.0,26,-99.99,,,-99.99,,2013-01-15 09:52:00,
2013-01-15 02:02:00,38.0,7.0,-100.00,NE,49,1.0,3.0,27,-99.99,,,-99.99,,2013-01-15 10:02:00,
2013-01-15 02:11:00,36.0,8.0,-100.00,NNE,13,1.0,2.0,30,-99.99,,,-99.99,,2013-01-15 10:11:00,
2013-01-15 02:22:00,36.0,8.0,-100.00,ENE,58,1.0,3.0,30,-99.99,,,-99.99,,2013-01-15 10:22:00,
2013-01-15 02:32:00,37.0,6.0,-100.00,North,2,1.0,2.0,27,-99.99,,,-99.99,,2013-01-15 10:32:00,
2013-01-15 02:42:00,38.0,7.0,-100.00,NW,326,1.0,3.0,27,-99.99,,,-99.99,,2013-01-15 10:42:00,
2013-01-15 02:52:00,38.0,7.0,-100.00,NW,326,1.0,3.0,27,-99.99,,,-99.99,,2013-01-15 10:52:00,
2013-01-15 03:02:00,38.0,6.0,-100.00,North,5,1.0,4.0,26,-99.99,,,-99.99,,2013-01-15 11:02:00,
2013-01-15 03:12:00,38.0,6.0,-100.00,NNW,328,1.0,4.0,26,-99.99,,,-99.99,,2013-01-15 11:12:00,
2013-01-15 03:22:00,37.0,7.0,-100.00,NE,34,2.0,3.0,28,-99.99,,,-99.99,,2013-01-15 11:22:00,
2013-01-15 03:32:00,36.0,8.0,-100.00,West,263,0.0,1.0,31,-99.99,,,-99.99,,2013-01-15 11:32:00,
2013-01-15 03:42:00,35.0,8.0,-100.00,NNW,345,1.0,5.0,32,-99.99,,,-99.99,,2013-01-15 11:42:00,
2013-01-15 03:52:00,37.0,8.0,-100.00,North,3,1.0,3.0,29,-99.99,,,-99.99,,2013-01-15 11:52:00,
2013-01-15 04:02:00,38.0,7.0,-100.00,NNW,345,1.0,2.0,27,-99.99,,,-99.99,,2013-01-15 12:02:00,
2013-01-15 04:12:00,39.0,7.0,-100.00,NNW,344,1.0,4.0,26,-99.99,,,-99.99,,2013-01-15 12:12:00,
2013-01-15 04:22:00,36.0,8.0,-100.00,SSW,206,0.0,1.0,31,-99.99,,,-99.99,,2013-01-15 12:22:00,
2013-01-15 04:32:00,36.0,7.0,-100.00,NE,50,1.0,2.0,29,-99.99,,,-99.99,,2013-01-15 12:32:00,
2013-01-15 04:42:00,37.0,6.0,-100.00,NNW,327,1.0,4.0,27,-99.99,,,-99.99,,2013-01-15 12:42:00,
2013-01-15 04:53:00,38.0,6.0,-100.00,NNW,341,1.0,4.0,26,-99.99,,,-99.99,,2013-01-15 12:53:00,
2013-01-15 05:02:00,38.0,6.0,-100.00,NNW,332,1.0,4.0,26,-99.99,,,-99.99,,2013-01-15 13:02:00,
2013-01-15 05:12:00,38.0,6.0,-100.00,NNW,329,1.0,5.0,26,-99.99,,,-99.99,,2013-01-15 13:12:00,
2013-01-15 05:22:00,37.0,6.0,-100.00,North,8,1.0,2.0,27,-99.99,,,-99.99,,2013-01-15 13:22:00,
2013-01-15 05:32:00,36.0,8.0,-100.00,North,6,1.0,2.0,30,-99.99,,,-99.99,,2013-01-15 13:32:00,
2013-01-15 05:42:00,36.0,8.0,-100.00,North,6,1.0,2.0,30,-99.99,,,-99.99,,2013-01-15 13:42:00,
2013-01-15 05:53:00,36.0,7.0,-100.00,North,6,1.0,2.0,29,-99.99,,,-99.99,,2013-01-15 13:53:00,
2013-01-15 06:02:00,36.0,8.0,-100.00,NNW,345,1.0,4.0,30,-99.99,,,-99.99,,2013-01-15 14:02:00,
2013-01-15 06:12:00,36.0,8.0,-100.00,North,7,1.0,2.0,31,-99.99,,,-99.99,,2013-01-15 14:12:00,
2013-01-15 06:22:00,36.0,8.0,-100.00,NNW,341,1.0,4.0,30,-99.99,,,-99.99,,2013-01-15 14:22:00,
2013-01-15 06:32:00,36.0,8.0,-100.00,NNW,347,1.0,3.0,31,-99.99,,,-99.99,,2013-01-15 14:32:00,
2013-01-15 06:42:00,36.0,8.0,-100.00,NNW,338,1.0,3.0,31,-99.99,,,-99.99,,2013-01-15 14:42:00,
2013-01-15 06:53:00,36.0,8.0,-100.00,North,3,1.0,3.0,31,-99.99,,,-99.99,,2013-01-15 14:53:00,
2013-01-15 07:02:00,36.0,8.0,-100.00,NNW,338,1.0,3.0,31,-99.99,,,-99.99,,2013-01-15 15:02:00,
2013-01-15 07:12:00,36.0,8.0,-100.00,NNW,344,1.0,4.0,30,-99.99,,,-99.99,,2013-01-15 15:12:00,
2013-01-15 07:23:00,36.0,8.0,-100.00,North,352,1.0,4.0,30,-99.99,,,-99.99,,2013-01-15 15:23:00,
2013-01-15 07:33:00,37.0,8.0,-100.00,NNE,19,1.0,2.0,29,-99.99,,,-99.99,,2013-01-15 15:33:00,
2013-01-15 07:43:00,37.0,8.0,-100.00,NNE,19,1.0,2.0,29,-99.99,,,-99.99,,2013-01-15 15:43:00,
2013-01-15 07:52:00,36.0,8.0,-100.00,NNE,27,1.0,3.0,31,-99.99,,,-99.99,,2013-01-15 15:52:00,
2013-01-15 08:02:00,36.0,8.0,-100.00,NNE,27,1.0,3.0,31,-99.99,,,-99.99,,2013-01-15 16:02:00,
2013-01-15 08:12:00,38.0,9.0,-100.00,NE,53,0.0,1.0,29,-99.99,,,-99.99,,2013-01-15 16:12:00,
2013-01-15 08:22:00,40.0,10.0,-100.00,North,351,1.0,2.0,28,-99.99,,,-99.99,,2013-01-15 16:22:00,
2013-01-15 08:33:00,41.0,10.0,-100.00,East,81,0.0,1.0,27,-99.99,,,-99.99,,2013-01-15 16:33:00,
2013-01-15 08:42:00,42.0,10.0,-100.00,East,91,1.0,3.0,26,-99.99,,,-99.99,,2013-01-15 16:42:00,
2013-01-15 08:53:00,44.0,10.0,-100.00,North,9,1.0,3.0,24,-99.99,,,-99.99,,2013-01-15 16:53:00,
2013-01-15 09:03:00,44.0,10.0,-100.00,North,9,1.0,3.0,24,-99.99,,,-99.99,,2013-01-15 17:03:00,
2013-01-15 09:12:00,46.0,9.0,-100.00,NW,322,1.0,3.0,22,-99.99,,,-99.99,,2013-01-15 17:12:00,
2013-01-15 09:22:00,47.0,9.0,-100.00,NW,315,1.0,3.0,21,-99.99,,,-99.99,,2013-01-15 17:22:00,
2013-01-15 09:33:00,48.0,9.0,-100.00,NW,314,1.0,3.0,20,-99.99,,,-99.99,,2013-01-15 17:33:00,
2013-01-15 09:42:00,49.0,7.0,-100.00,West,269,1.0,2.0,18,-99.99,,,-99.99,,2013-01-15 17:42:00,
2013-01-15 09:53:00,52.0,7.0,-100.00,SSE,165,1.0,2.0,16,-99.99,,,-99.99,,2013-01-15 17:53:00,
2013-01-15 10:02:00,52.0,7.0,-100.00,SSE,165,1.0,2.0,16,-99.99,,,-99.99,,2013-01-15 18:02:00,
2013-01-15 10:12:00,52.0,9.0,-100.00,SSW,201,2.0,6.0,17,-99.99,,,-99.99,,2013-01-15 18:12:00,
2013-01-15 10:22:00,52.0,10.0,-100.00,WSW,242,3.0,6.0,18,-99.99,,,-99.99,,2013-01-15 18:22:00,
2013-01-15 10:33:00,53.0,11.0,-100.00,SW,226,2.0,5.0,18,-99.99,,,-99.99,,2013-01-15 18:33:00,
2013-01-15 10:42:00,53.0,11.0,-100.00,SW,219,2.0,6.0,18,-99.99,,,-99.99,,2013-01-15 18:42:00,
2013-01-15 10:53:00,55.0,11.0,-100.00,South,173,1.0,2.0,17,-99.99,,,-99.99,,2013-01-15 18:53:00,
2013-01-15 11:03:00,55.0,10.0,-100.00,South,184,1.0,4.0,16,-99.99,,,-99.99,,2013-01-15 19:03:00,
2013-01-15 11:12:00,55.0,10.0,-100.00,SE,128,1.0,3.0,16,-99.99,,,-99.99,,2013-01-15 19:12:00,
2013-01-15 11:22:00,55.0,10.0,-100.00,SSW,208,3.0,7.0,16,-99.99,,,-99.99,,2013-01-15 19:22:00,
2013-01-15 11:33:00,56.0,10.0,-100.00,South,183,2.0,6.0,16,-99.99,,,-99.99,,2013-01-15 19:33:00,
2013-01-15 11:42:00,56.0,10.0,-100.00,SSW,205,3.0,6.0,16,-99.99,,,-99.99,,2013-01-15 19:42:00,
2013-01-15 11:52:00,56.0,12.0,-100.00,SW,219,4.0,7.0,17,-99.99,,,-99.99,,2013-01-15 19:52:00,
2013-01-15 12:02:00,56.0,12.0,-100.00,SW,219,4.0,7.0,17,-99.99,,,-99.99,,2013-01-15 20:02:00,
2013-01-15 12:12:00,56.0,10.0,-100.00,SSW,199,2.0,4.0,16,-99.99,,,-99.99,,2013-01-15 20:12:00,
2013-01-15 12:22:00,58.0,11.0,-100.00,SSW,213,2.0,6.0,15,-99.99,,,-99.99,,2013-01-15 20:22:00,
2013-01-15 12:33:00,57.0,11.0,-100.00,SSW,208,2.0,6.0,16,-99.99,,,-99.99,,2013-01-15 20:33:00,
2013-01-15 12:43:00,58.0,13.0,-100.00,SSW,213,3.0,6.0,17,-99.99,,,-99.99,,2013-01-15 20:43:00,
2013-01-15 12:52:00,58.0,16.0,-100.00,SW,228,4.0,8.0,19,-99.99,,,-99.99,,2013-01-15 20:52:00,
2013-01-15 13:02:00,58.0,17.0,-100.00,SW,222,3.0,6.0,20,-99.99,,,-99.99,,2013-01-15 21:02:00,
2013-01-15 13:12:00,58.0,18.0,-100.00,WSW,254,5.0,8.0,21,-99.99,,,-99.99,,2013-01-15 21:12:00,
2013-01-15 13:22:00,58.0,19.0,-100.00,SW,232,2.0,7.0,22,-99.99,,,-99.99,,2013-01-15 21:22:00,
2013-01-15 13:33:00,59.0,18.0,-100.00,WSW,245,4.0,7.0,20,-99.99,,,-99.99,,2013-01-15 21:33:00,
2013-01-15 13:42:00,59.0,18.0,-100.00,SW,223,3.0,7.0,20,-99.99,,,-99.99,,2013-01-15 21:42:00,
2013-01-15 13:52:00,60.0,18.0,-100.00,WSW,256,2.0,8.0,19,-99.99,,,-99.99,,2013-01-15 21:52:00,
2013-01-15 14:02:00,60.0,19.0,-100.00,WSW,246,4.0,9.0,20,-99.99,,,-99.99,,2013-01-15 22:02:00,
2013-01-15 14:12:00,59.0,20.0,-100.00,West,259,5.0,11.0,22,-99.99,,,-99.99,,2013-01-15 22:12:00,
2013-01-15 14:22:00,59.0,21.0,-100.00,WSW,246,5.0,15.0,23,-99.99,,,-99.99,,2013-01-15 22:22:00,
2013-01-15 14:32:00,58.0,21.0,-100.00,West,266,8.0,14.0,24,-99.99,,,-99.99,,2013-01-15 22:32:00,
2013-01-15 14:42:00,57.0,20.0,-100.00,WSW,252,7.0,13.0,23,-99.99,,,-99.99,,2013-01-15 22:42:00,
2013-01-15 14:52:00,58.0,19.0,-100.00,WSW,257,4.0,9.0,22,-99.99,,,-99.99,,2013-01-15 22:52:00,
2013-01-15 15:02:00,59.0,18.0,-100.00,West,279,2.0,6.0,20,-99.99,,,-99.99,,2013-01-15 23:02:00,
2013-01-15 15:12:00,60.0,19.0,-100.00,SW,231,3.0,9.0,20,-99.99,,,-99.99,,2013-01-15 23:12:00,
2013-01-15 15:22:00,59.0,19.0,-100.00,WSW,257,6.0,13.0,21,-99.99,,,-99.99,,2013-01-15 23:22:00,
2013-01-15 15:32:00,59.0,19.0,-100.00,WSW,252,4.0,10.0,21,-99.99,,,-99.99,,2013-01-15 23:32:00,
2013-01-15 15:42:00,59.0,19.0,-100.00,WSW,250,4.0,11.0,21,-99.99,,,-99.99,,2013-01-15 23:42:00,
2013-01-15 15:53:00,59.0,19.0,-100.00,West,261,4.0,8.0,21,-99.99,,,-99.99,,2013-01-15 23:53:00,
2013-01-15 16:02:00,59.0,19.0,-100.00,WSW,258,4.0,9.0,21,-99.99,,,-99.99,,2013-01-16 00:02:00,
2013-01-15 16:12:00,59.0,22.0,-100.00,SW,229,3.0,7.0,24,-99.99,,,-99.99,,2013-01-16 00:12:00,
2013-01-15 16:22:00,58.0,22.0,-100.00,SW,223,2.0,6.0,25,-99.99,,,-99.99,,2013-01-16 00:22:00,
2013-01-15 16:32:00,58.0,23.0,-100.00,SW,226,3.0,5.0,26,-99.99,,,-99.99,,2013-01-16 00:32:00,
2013-01-15 16:42:00,57.0,23.0,-100.00,SW,217,4.0,7.0,27,-99.99,,,-99.99,,2013-01-16 00:42:00,
2013-01-15 16:52:00,57.0,22.0,-100.00,SW,230,3.0,6.0,25,-99.99,,,-99.99,,2013-01-16 00:52:00,
2013-01-15 17:02:00,56.0,21.0,-100.00,SSW,207,2.0,4.0,25,-99.99,,,-99.99,,2013-01-16 01:02:00,
2013-01-15 17:12:00,56.0,23.0,-100.00,SSE,154,1.0,2.0,27,-99.99,,,-99.99,,2013-01-16 01:12:00,
2013-01-15 17:22:00,55.0,23.0,-100.00,South,178,0.0,1.0,28,-99.99,,,-99.99,,2013-01-16 01:22:00,
2013-01-15 17:32:00,52.0,22.0,-100.00,SW,220,0.0,1.0,30,-99.99,,,-99.99,,2013-01-16 01:32:00,
2013-01-15 17:42:00,52.0,22.0,-100.00,West,272,1.0,2.0,31,-99.99,,,-99.99,,2013-01-16 01:42:00,
2013-01-15 17:52:00,50.0,22.0,-100.00,North,351,1.0,3.0,33,-99.99,,,-99.99,,2013-01-16 01:52:00,
2013-01-15 18:02:00,49.0,23.0,-100.00,NE,43,2.0,5.0,36,-99.99,,,-99.99,,2013-01-16 02:02:00,
2013-01-15 18:12:00,47.0,24.0,-100.00,NE,41,2.0,6.0,40,-99.99,,,-99.99,,2013-01-16 02:12:00,
2013-01-15 18:22:00,46.0,24.0,-100.00,NNW,347,1.0,2.0,41,-99.99,,,-99.99,,2013-01-16 02:22:00,
2013-01-15 18:32:00,45.0,24.0,-100.00,NE,44,2.0,4.0,43,-99.99,,,-99.99,,2013-01-16 02:32:00,
2013-01-15 18:42:00,45.0,24.0,-100.00,NNE,32,2.0,4.0,44,-99.99,,,-99.99,,2013-01-16 02:42:00,
2013-01-15 18:52:00,45.0,24.0,-100.00,NNE,15,1.0,3.0,44,-99.99,,,-99.99,,2013-01-16 02:52:00,
2013-01-15 19:02:00,44.0,24.0,-100.00,NNE,25,1.0,3.0,45,-99.99,,,-99.99,,2013-01-16 03:02:00,
2013-01-15 19:11:00,44.0,25.0,-100.00,NNE,19,3.0,6.0,46,-99.99,,,-99.99,,2013-01-16 03:11:00,
2013-01-15 19:22:00,44.0,25.0,-100.00,NNW,343,1.0,5.0,47,-99.99,,,-99.99,,2013-01-16 03:22:00,
2013-01-15 19:32:00,43.0,25.0,-100.00,NNW,337,1.0,6.0,48,-99.99,,,-99.99,,2013-01-16 03:32:00,
2013-01-15 19:42:00,44.0,23.0,-100.00,North,1,2.0,5.0,44,-99.99,,,-99.99,,2013-01-16 03:42:00,
2013-01-15 19:52:00,44.0,23.0,-100.00,East,88,1.0,3.0,44,-99.99,,,-99.99,,2013-01-16 03:52:00,
2013-01-15 20:02:00,44.0,23.0,-100.00,East,88,1.0,3.0,44,-99.99,,,-99.99,,2013-01-16 04:02:00,
2013-01-15 20:12:00,44.0,23.0,-100.00,NNE,25,1.0,1.0,44,-99.99,,,-99.99,,2013-01-16 04:12:00,
2013-01-15 20:22:00,44.0,23.0,-100.00,WSW,253,0.0,3.0,43,-99.99,,,-99.99,,2013-01-16 04:22:00,
2013-01-15 20:32:00,42.0,23.0,-100.00,SSE,154,1.0,2.0,47,-99.99,,,-99.99,,2013-01-16 04:32:00,
2013-01-15 20:42:00,42.0,24.0,-100.00,SW,225,1.0,3.0,49,-99.99,,,-99.99,,2013-01-16 04:42:00,
2013-01-15 20:52:00,41.0,23.0,-100.00,South,169,1.0,3.0,49,-99.99,,,-99.99,,2013-01-16 04:52:00,
2013-01-15 21:03:00,42.0,24.0,-100.00,West,273,1.0,3.0,48,-99.99,,,-99.99,,2013-01-16 05:03:00,
2013-01-15 21:12:00,42.0,24.0,-100.00,NE,43,1.0,4.0,48,-99.99,,,-99.99,,2013-01-16 05:12:00,
2013-01-15 21:22:00,41.0,24.0,-100.00,NNW,335,1.0,2.0,50,-99.99,,,-99.99,,2013-01-16 05:22:00,
2013-01-15 21:32:00,40.0,24.0,-100.00,NE,56,2.0,6.0,52,-99.99,,,-99.99,,2013-01-16 05:32:00,
2013-01-15 21:42:00,40.0,24.0,-100.00,North,3,1.0,3.0,52,-99.99,,,-99.99,,2013-01-16 05:42:00,
2013-01-15 21:52:00,39.0,23.0,-100.00,NW,311,1.0,2.0,53,-99.99,,,-99.99,,2013-01-16 05:52:00,
2013-01-15 22:02:00,40.0,24.0,-100.00,NE,34,2.0,5.0,52,-99.99,,,-99.99,,2013-01-16 06:02:00,
2013-01-15 22:11:00,40.0,24.0,-100.00,NNW,346,1.0,4.0,52,-99.99,,,-99.99,,2013-01-16 06:11:00,
2013-01-15 22:22:00,39.0,24.0,-100.00,NE,52,2.0,4.0,54,-99.99,,,-99.99,,2013-01-16 06:22:00,
2013-01-15 22:32:00,40.0,24.0,-100.00,NNW,334,2.0,4.0,52,-99.99,,,-99.99,,2013-01-16 06:32:00,
2013-01-15 22:42:00,39.0,23.0,-100.00,ENE,64,1.0,4.0,53,-99.99,,,-99.99,,2013-01-16 06:42:00,
2013-01-15 22:52:00,37.0,24.0,-100.00,WSW,238,1.0,4.0,58,-99.99,,,-99.99,,2013-01-16 06:52:00,
2013-01-15 23:02:00,37.0,24.0,-100.00,ESE,106,1.0,4.0,59,-99.99,,,-99.99,,2013-01-16 07:02:00,
2013-01-15 23:11:00,36.0,24.0,-100.00,WSW,255,2.0,4.0,61,-99.99,,,-99.99,,2013-01-16 07:11:00,
2013-01-15 23:22:00,36.0,23.0,-100.00,North,353,1.0,5.0,60,-99.99,,,-99.99,,2013-01-16 07:22:00,
2013-01-15 23:32:00,38.0,24.0,-100.00,NNE,32,2.0,4.0,57,-99.99,,,-99.99,,2013-01-16 07:32:00,
2013-01-15 23:42:00,37.0,24.0,-100.00,North,5,2.0,4.0,58,-99.99,,,-99.99,,2013-01-16 07:42:00,
2013-01-15 23:52:00,37.0,24.0,-100.00,NNW,347,2.0,5.0,58,-99.99,,,-99.99,,2013-01-16 07:52:00,